Time,TemperatureF,DewpointF,PressureIn,WindDirection,WindDirectionDegrees,WindSpeedMPH,WindSpeedGustMPH,Humidity,HourlyPrecipIn,Conditions,Clouds,dailyrainin,SoftwareType,DateUTC
2013-04-09 00:02:00,64.0,56.0,30.00,SE,133,2.0,-999.0,76,-99.99,,,0.00,,2013-04-09 05:02:00,
2013-04-09 00:12:00,63.0,56.0,30.00,SE,135,1.0,-999.0,78,-99.99,,,0.00,,2013-04-09 05:12:00,
2013-04-09 00:22:00,63.0,56.0,30.00,SE,135,1.0,-999.0,78,-99.99,,,0.00,,2013-04-09 05:22:00,
2013-04-09 00:32:00,63.0,56.0,30.01,SE,135,1.0,-999.0,79,-99.99,,,0.00,,2013-04-09 05:32:00,
2013-04-09 00:42:00,63.0,56.0,30.01,SE,135,0.0,-999.0,77,-99.99,,,0.00,,2013-04-09 05:42:00,
2013-04-09 00:52:00,63.0,56.0,30.01,SE,135,0.0,-999.0,77,-99.99,,,0.00,,2013-04-09 05:52:00,
2013-04-09 01:02:00,62.0,56.0,30.01,SE,135,1.0,-999.0,81,-99.99,,,0.00,,2013-04-09 06:02:00,
2013-04-09 01:12:00,61.0,55.0,30.01,SE,135,1.0,-999.0,82,-99.99,,,0.00,,2013-04-09 06:12:00,
2013-04-09 01:22:00,61.0,55.0,30.01,SE,135,1.0,-999.0,82,-99.99,,,0.00,,2013-04-09 06:22:00,
2013-04-09 01:32:00,60.0,55.0,30.00,SE,135,2.0,-999.0,85,-99.99,,,0.00,,2013-04-09 06:32:00,
2013-04-09 01:42:00,60.0,55.0,30.00,SE,135,2.0,-999.0,85,-99.99,,,0.00,,2013-04-09 06:42:00,
2013-04-09 01:52:00,60.0,55.0,30.00,SE,135,2.0,-999.0,85,-99.99,,,0.00,,2013-04-09 06:52:00,
2013-04-09 02:02:00,60.0,55.0,29.99,SSE,152,2.0,-999.0,85,-99.99,,,0.00,,2013-04-09 07:02:00,
2013-04-09 02:12:00,60.0,55.0,29.99,SSE,152,2.0,-999.0,85,-99.99,,,0.00,,2013-04-09 07:12:00,
2013-04-09 02:22:00,60.0,55.0,29.99,SSE,156,1.0,-999.0,84,-99.99,,,0.00,,2013-04-09 07:22:00,
2013-04-09 02:32:00,60.0,55.0,29.98,SE,126,2.0,-999.0,84,-99.99,,,0.00,,2013-04-09 07:32:00,
2013-04-09 02:42:00,60.0,55.0,29.98,SE,126,2.0,-999.0,84,-99.99,,,0.00,,2013-04-09 07:42:00,
2013-04-09 02:52:00,61.0,56.0,29.98,SE,138,3.0,-999.0,84,-99.99,,,0.00,,2013-04-09 07:52:00,
2013-04-09 03:02:00,61.0,56.0,29.99,SE,138,1.0,-999.0,83,-99.99,,,0.00,,2013-04-09 08:02:00,
2013-04-09 03:12:00,61.0,56.0,29.99,SE,138,1.0,-999.0,83,-99.99,,,0.00,,2013-04-09 08:12:00,
2013-04-09 03:22:00,61.0,56.0,29.99,SE,138,1.0,-999.0,83,-99.99,,,0.00,,2013-04-09 08:22:00,
2013-04-09 03:32:00,60.0,55.0,30.00,SE,138,2.0,-999.0,83,-99.99,,,0.00,,2013-04-09 08:32:00,
2013-04-09 03:42:00,60.0,55.0,30.00,SE,138,2.0,-999.0,83,-99.99,,,0.00,,2013-04-09 08:42:00,
2013-04-09 03:52:00,60.0,56.0,30.01,SE,138,0.0,-999.0,86,-99.99,,,0.00,,2013-04-09 08:52:00,
2013-04-09 04:02:00,59.0,55.0,30.01,SE,138,0.0,-999.0,86,-99.99,,,0.00,,2013-04-09 09:02:00,
2013-04-09 04:12:00,59.0,55.0,30.01,SE,138,0.0,-999.0,86,-99.99,,,0.00,,2013-04-09 09:12:00,
2013-04-09 04:22:00,59.0,55.0,30.02,SE,138,0.0,-999.0,87,-99.99,,,0.00,,2013-04-09 09:22:00,
2013-04-09 04:33:00,59.0,55.0,30.03,SE,138,0.0,-999.0,88,-99.99,,,0.00,,2013-04-09 09:33:00,
2013-04-09 04:43:00,59.0,55.0,30.03,SE,138,0.0,-999.0,88,-99.99,,,0.00,,2013-04-09 09:43:00,
2013-04-09 04:53:00,58.0,54.0,30.03,SE,138,0.0,-999.0,88,-99.99,,,0.00,,2013-04-09 09:53:00,
2013-04-09 05:03:00,58.0,55.0,30.03,SE,138,0.0,-999.0,89,-99.99,,,0.00,,2013-04-09 10:03:00,
2013-04-09 05:12:00,58.0,55.0,30.03,SE,138,0.0,-999.0,89,-99.99,,,0.00,,2013-04-09 10:12:00,
2013-04-09 05:23:00,58.0,55.0,30.03,SE,138,2.0,-999.0,90,-99.99,,,0.00,,2013-04-09 10:23:00,
2013-04-09 05:33:00,58.0,55.0,30.03,SE,139,3.0,-999.0,91,-99.99,,,0.00,,2013-04-09 10:33:00,
2013-04-09 05:42:00,58.0,55.0,30.03,SE,139,3.0,-999.0,91,-99.99,,,0.00,,2013-04-09 10:42:00,
2013-04-09 05:53:00,59.0,56.0,30.04,SE,139,3.0,-999.0,90,-99.99,,,0.00,,2013-04-09 10:53:00,
2013-04-09 06:02:00,61.0,57.0,30.04,SE,133,4.0,-999.0,86,-99.99,,,0.00,,2013-04-09 11:02:00,
2013-04-09 06:12:00,61.0,57.0,30.04,SE,133,4.0,-999.0,86,-99.99,,,0.00,,2013-04-09 11:12:00,
2013-04-09 06:22:00,61.0,56.0,30.04,SE,130,4.0,-999.0,85,-99.99,,,0.00,,2013-04-09 11:22:00,
2013-04-09 06:32:00,61.0,56.0,30.05,SE,141,4.0,-999.0,84,-99.99,,,0.00,,2013-04-09 11:32:00,
2013-04-09 06:42:00,61.0,56.0,30.05,SE,141,4.0,-999.0,84,-99.99,,,0.00,,2013-04-09 11:42:00,
2013-04-09 06:52:00,61.0,56.0,30.05,SSE,150,5.0,-999.0,85,-99.99,,,0.00,,2013-04-09 11:52:00,
2013-04-09 07:02:00,61.0,56.0,30.05,SE,141,5.0,-999.0,84,-99.99,,,0.00,,2013-04-09 12:02:00,
2013-04-09 07:12:00,61.0,56.0,30.05,SE,141,5.0,-999.0,84,-99.99,,,0.00,,2013-04-09 12:12:00,
2013-04-09 07:22:00,62.0,57.0,30.06,SSE,149,4.0,-999.0,85,-99.99,,,0.00,,2013-04-09 12:22:00,
2013-04-09 07:32:00,62.0,57.0,30.06,SE,132,3.0,-999.0,85,-99.99,,,0.00,,2013-04-09 12:32:00,
2013-04-09 07:42:00,62.0,57.0,30.06,SE,132,3.0,-999.0,85,-99.99,,,0.00,,2013-04-09 12:42:00,
2013-04-09 07:53:00,63.0,58.0,30.07,ESE,120,5.0,-999.0,83,-99.99,,,0.00,,2013-04-09 12:53:00,
2013-04-09 08:02:00,64.0,59.0,30.07,SSE,153,4.0,-999.0,83,-99.99,,,0.00,,2013-04-09 13:02:00,
2013-04-09 08:12:00,64.0,59.0,30.07,SSE,153,4.0,-999.0,83,-99.99,,,0.00,,2013-04-09 13:12:00,
2013-04-09 08:23:00,64.0,58.0,30.07,SSE,148,4.0,-999.0,82,-99.99,,,0.00,,2013-04-09 13:23:00,
2013-04-09 08:32:00,65.0,59.0,30.08,SE,132,5.0,-999.0,81,-99.99,,,0.00,,2013-04-09 13:32:00,
2013-04-09 08:42:00,65.0,59.0,30.08,SE,132,5.0,-999.0,81,-99.99,,,0.00,,2013-04-09 13:42:00,
2013-04-09 08:53:00,66.0,59.0,30.08,SSE,155,5.0,-999.0,79,-99.99,,,0.00,,2013-04-09 13:53:00,
2013-04-09 09:03:00,66.0,59.0,30.09,SSE,152,4.0,-999.0,79,-99.99,,,0.00,,2013-04-09 14:03:00,
2013-04-09 09:12:00,66.0,59.0,30.09,SSE,152,4.0,-999.0,79,-99.99,,,0.00,,2013-04-09 14:12:00,
2013-04-09 09:22:00,68.0,61.0,30.09,SE,135,3.0,-999.0,78,-99.99,,,0.00,,2013-04-09 14:22:00,
2013-04-09 09:32:00,69.0,60.0,30.09,SSW,208,3.0,-999.0,73,-99.99,,,0.00,,2013-04-09 14:32:00,
2013-04-09 09:42:00,69.0,60.0,30.09,SSW,208,3.0,-999.0,73,-99.99,,,0.00,,2013-04-09 14:42:00,
2013-04-09 09:52:00,69.0,61.0,30.09,South,181,4.0,-999.0,76,-99.99,,,0.00,,2013-04-09 14:52:00,
2013-04-09 10:02:00,69.0,61.0,30.09,South,177,3.0,-999.0,77,-99.99,,,0.00,,2013-04-09 15:02:00,
2013-04-09 10:12:00,69.0,61.0,30.09,South,177,3.0,-999.0,77,-99.99,,,0.00,,2013-04-09 15:12:00,
2013-04-09 10:22:00,69.0,61.0,30.10,SSW,201,4.0,-999.0,75,-99.99,,,0.00,,2013-04-09 15:22:00,
2013-04-09 10:33:00,70.0,61.0,30.10,South,179,6.0,-999.0,73,-99.99,,,0.00,,2013-04-09 15:33:00,
2013-04-09 10:43:00,70.0,61.0,30.10,South,179,6.0,-999.0,73,-99.99,,,0.00,,2013-04-09 15:43:00,
2013-04-09 10:53:00,71.0,62.0,30.10,SE,143,5.0,-999.0,74,-99.99,,,0.00,,2013-04-09 15:53:00,
2013-04-09 11:03:00,72.0,62.0,30.10,South,170,7.0,-999.0,72,-99.99,,,0.00,,2013-04-09 16:03:00,
2013-04-09 11:13:00,72.0,62.0,30.10,South,170,7.0,-999.0,72,-99.99,,,0.00,,2013-04-09 16:13:00,
2013-04-09 11:23:00,72.0,62.0,30.09,SSE,159,7.0,-999.0,71,-99.99,,,0.00,,2013-04-09 16:23:00,
2013-04-09 11:33:00,74.0,64.0,30.08,SE,138,5.0,-999.0,72,-99.99,,,0.00,,2013-04-09 16:33:00,
2013-04-09 11:42:00,74.0,64.0,30.08,SE,138,5.0,-999.0,72,-99.99,,,0.00,,2013-04-09 16:42:00,
2013-04-09 11:53:00,76.0,63.0,30.08,South,191,6.0,-999.0,64,-99.99,,,0.00,,2013-04-09 16:53:00,
2013-04-09 12:02:00,76.0,64.0,30.07,SSW,194,8.0,-999.0,66,-99.99,,,0.00,,2013-04-09 17:02:00,
2013-04-09 12:12:00,76.0,64.0,30.07,SSW,194,8.0,-999.0,66,-99.99,,,0.00,,2013-04-09 17:12:00,
2013-04-09 12:23:00,76.0,62.0,30.06,SE,134,8.0,-999.0,63,-99.99,,,0.00,,2013-04-09 17:23:00,
2013-04-09 12:32:00,77.0,63.0,30.06,SSW,197,8.0,-999.0,63,-99.99,,,0.00,,2013-04-09 17:32:00,
2013-04-09 12:42:00,77.0,63.0,30.06,SSW,197,8.0,-999.0,63,-99.99,,,0.00,,2013-04-09 17:42:00,
2013-04-09 12:54:00,78.0,62.0,30.05,SE,139,8.0,-999.0,59,-99.99,,,0.00,,2013-04-09 17:54:00,
2013-04-09 13:02:00,78.0,62.0,30.04,South,187,8.0,-999.0,59,-99.99,,,0.00,,2013-04-09 18:02:00,
2013-04-09 13:12:00,78.0,62.0,30.04,South,187,8.0,-999.0,59,-99.99,,,0.00,,2013-04-09 18:12:00,
2013-04-09 13:22:00,79.0,62.0,30.03,South,185,9.0,-999.0,57,-99.99,,,0.00,,2013-04-09 18:22:00,
2013-04-09 13:32:00,79.0,63.0,30.02,SSE,163,8.0,-999.0,58,-99.99,,,0.00,,2013-04-09 18:32:00,
2013-04-09 13:43:00,79.0,63.0,30.02,SSE,163,8.0,-999.0,58,-99.99,,,0.00,,2013-04-09 18:43:00,
2013-04-09 13:53:00,79.0,62.0,30.02,SSE,161,8.0,-999.0,57,-99.99,,,0.00,,2013-04-09 18:53:00,
2013-04-09 14:02:00,79.0,62.0,30.02,SSE,161,8.0,-999.0,57,-99.99,,,0.00,,2013-04-09 19:02:00,
2013-04-09 14:12:00,79.0,62.0,30.02,SSE,161,8.0,-999.0,57,-99.99,,,0.00,,2013-04-09 19:12:00,
2013-04-09 14:22:00,79.0,62.0,30.02,SSE,161,8.0,-999.0,57,-99.99,,,0.00,,2013-04-09 19:22:00,
2013-04-09 14:33:00,79.0,62.0,30.01,SSW,212,9.0,-999.0,57,-99.99,,,0.00,,2013-04-09 19:33:00,
2013-04-09 14:42:00,79.0,62.0,30.01,SSW,212,9.0,-999.0,57,-99.99,,,0.00,,2013-04-09 19:42:00,
2013-04-09 14:53:00,81.0,64.0,29.99,SW,216,3.0,-999.0,56,-99.99,,,0.00,,2013-04-09 19:53:00,
2013-04-09 15:02:00,82.0,63.0,29.98,SW,229,8.0,-999.0,52,-99.99,,,0.00,,2013-04-09 20:02:00,
2013-04-09 15:12:00,82.0,63.0,29.98,SW,229,8.0,-999.0,52,-99.99,,,0.00,,2013-04-09 20:12:00,
2013-04-09 15:22:00,80.0,63.0,29.97,SSW,199,9.0,-999.0,56,-99.99,,,0.00,,2013-04-09 20:22:00,
2013-04-09 15:33:00,80.0,62.0,29.96,SSE,147,9.0,-999.0,54,-99.99,,,0.00,,2013-04-09 20:33:00,
2013-04-09 15:42:00,80.0,62.0,29.96,SSE,147,9.0,-999.0,54,-99.99,,,0.00,,2013-04-09 20:42:00,
2013-04-09 15:52:00,80.0,62.0,29.96,SSE,161,10.0,-999.0,54,-99.99,,,0.00,,2013-04-09 20:52:00,
2013-04-09 16:02:00,80.0,61.0,29.95,SSE,160,8.0,-999.0,53,-99.99,,,0.00,,2013-04-09 21:02:00,
2013-04-09 16:13:00,80.0,61.0,29.95,SSE,160,8.0,-999.0,53,-99.99,,,0.00,,2013-04-09 21:13:00,
2013-04-09 16:22:00,80.0,61.0,29.95,SSE,160,8.0,-999.0,53,-99.99,,,0.00,,2013-04-09 21:22:00,
2013-04-09 16:33:00,80.0,61.0,29.93,SSE,159,8.0,-999.0,53,-99.99,,,0.00,,2013-04-09 21:33:00,
2013-04-09 16:42:00,80.0,61.0,29.93,SSE,159,8.0,-999.0,53,-99.99,,,0.00,,2013-04-09 21:42:00,
2013-04-09 16:53:00,82.0,62.0,29.93,South,184,8.0,-999.0,51,-99.99,,,0.00,,2013-04-09 21:53:00,
2013-04-09 17:03:00,83.0,62.0,29.94,SSW,207,5.0,-999.0,50,-99.99,,,0.00,,2013-04-09 22:03:00,
2013-04-09 17:13:00,82.0,61.0,29.94,South,177,8.0,-999.0,49,-99.99,,,0.00,,2013-04-09 22:13:00,
2013-04-09 17:23:00,82.0,61.0,29.94,South,177,8.0,-999.0,49,-99.99,,,0.00,,2013-04-09 22:23:00,
2013-04-09 17:33:00,81.0,61.0,29.94,SSW,192,6.0,-999.0,51,-99.99,,,0.00,,2013-04-09 22:33:00,
2013-04-09 17:42:00,81.0,61.0,29.94,SSW,192,6.0,-999.0,51,-99.99,,,0.00,,2013-04-09 22:42:00,
2013-04-09 17:53:00,81.0,62.0,29.94,SSW,208,4.0,-999.0,52,-99.99,,,0.00,,2013-04-09 22:53:00,
2013-04-09 18:03:00,82.0,61.0,29.94,SE,142,6.0,-999.0,50,-99.99,,,0.00,,2013-04-09 23:03:00,
2013-04-09 18:12:00,82.0,62.0,29.94,SSE,160,5.0,-999.0,51,-99.99,,,0.00,,2013-04-09 23:12:00,
2013-04-09 18:22:00,82.0,62.0,29.94,SSE,160,5.0,-999.0,51,-99.99,,,0.00,,2013-04-09 23:22:00,
2013-04-09 18:32:00,82.0,61.0,29.94,SW,216,7.0,-999.0,50,-99.99,,,0.00,,2013-04-09 23:32:00,
2013-04-09 18:42:00,82.0,61.0,29.94,SW,216,7.0,-999.0,50,-99.99,,,0.00,,2013-04-09 23:42:00,
2013-04-09 18:53:00,81.0,61.0,29.93,South,181,4.0,-999.0,50,-99.99,,,0.00,,2013-04-09 23:53:00,
2013-04-09 19:03:00,81.0,61.0,29.93,South,181,4.0,-999.0,50,-99.99,,,0.00,,2013-04-10 00:03:00,
2013-04-09 19:12:00,81.0,61.0,29.93,South,181,4.0,-999.0,50,-99.99,,,0.00,,2013-04-10 00:12:00,
2013-04-09 19:22:00,79.0,60.0,29.94,South,174,3.0,-999.0,53,-99.99,,,0.00,,2013-04-10 00:22:00,
2013-04-09 19:32:00,79.0,60.0,29.94,South,179,3.0,-999.0,53,-99.99,,,0.00,,2013-04-10 00:32:00,
2013-04-09 19:42:00,79.0,60.0,29.94,South,179,3.0,-999.0,53,-99.99,,,0.00,,2013-04-10 00:42:00,
2013-04-09 19:52:00,78.0,60.0,29.95,SSE,165,3.0,-999.0,54,-99.99,,,0.00,,2013-04-10 00:52:00,
2013-04-09 20:02:00,77.0,60.0,29.95,South,170,3.0,-999.0,55,-99.99,,,0.00,,2013-04-10 01:02:00,
2013-04-09 20:12:00,77.0,60.0,29.96,SSE,163,3.0,-999.0,56,-99.99,,,0.00,,2013-04-10 01:12:00,
2013-04-09 20:23:00,77.0,60.0,29.96,SSE,163,3.0,-999.0,56,-99.99,,,0.00,,2013-04-10 01:23:00,
2013-04-09 20:32:00,76.0,60.0,29.96,SSE,167,2.0,-999.0,57,-99.99,,,0.00,,2013-04-10 01:32:00,
2013-04-09 20:42:00,76.0,60.0,29.96,SSE,167,2.0,-999.0,57,-99.99,,,0.00,,2013-04-10 01:42:00,
2013-04-09 20:52:00,74.0,60.0,29.97,SSE,167,1.0,-999.0,62,-99.99,,,0.00,,2013-04-10 01:52:00,
2013-04-09 21:02:00,72.0,60.0,29.98,SSE,167,1.0,-999.0,66,-99.99,,,0.00,,2013-04-10 02:02:00,
2013-04-09 21:12:00,72.0,60.0,29.98,SSE,167,1.0,-999.0,66,-99.99,,,0.00,,2013-04-10 02:12:00,
2013-04-09 21:22:00,71.0,60.0,29.98,SSE,167,0.0,-999.0,68,-99.99,,,0.00,,2013-04-10 02:22:00,
2013-04-09 21:32:00,69.0,60.0,30.00,South,180,1.0,-999.0,73,-99.99,,,0.00,,2013-04-10 02:32:00,
2013-04-09 21:42:00,69.0,60.0,30.00,South,180,1.0,-999.0,73,-99.99,,,0.00,,2013-04-10 02:42:00,
2013-04-09 21:52:00,68.0,59.0,30.01,South,180,2.0,-999.0,74,-99.99,,,0.00,,2013-04-10 02:52:00,
2013-04-09 22:02:00,68.0,60.0,30.01,South,180,1.0,-999.0,75,-99.99,,,0.00,,2013-04-10 03:02:00,
2013-04-09 22:12:00,68.0,60.0,30.01,South,180,1.0,-999.0,75,-99.99,,,0.00,,2013-04-10 03:12:00,
2013-04-09 22:22:00,67.0,60.0,30.01,SE,136,2.0,-999.0,77,-99.99,,,0.00,,2013-04-10 03:22:00,
2013-04-09 22:33:00,66.0,59.0,30.01,SE,136,1.0,-999.0,78,-99.99,,,0.00,,2013-04-10 03:33:00,
2013-04-09 22:43:00,66.0,59.0,30.01,SE,136,1.0,-999.0,78,-99.99,,,0.00,,2013-04-10 03:43:00,
2013-04-09 22:52:00,67.0,60.0,30.01,SE,136,2.0,-999.0,78,-99.99,,,0.00,,2013-04-10 03:52:00,
2013-04-09 23:03:00,66.0,59.0,30.01,SE,136,1.0,-999.0,79,-99.99,,,0.00,,2013-04-10 04:03:00,
2013-04-09 23:13:00,66.0,59.0,30.01,SE,136,1.0,-999.0,79,-99.99,,,0.00,,2013-04-10 04:13:00,
2013-04-09 23:23:00,66.0,59.0,30.01,SE,136,0.0,-999.0,79,-99.99,,,0.00,,2013-04-10 04:23:00,
2013-04-09 23:33:00,65.0,59.0,30.01,SE,136,0.0,-999.0,81,-99.99,,,0.00,,2013-04-10 04:33:00,
2013-04-09 23:42:00,65.0,59.0,30.01,SE,136,0.0,-999.0,81,-99.99,,,0.00,,2013-04-10 04:42:00,
2013-04-09 23:53:00,65.0,59.0,30.01,SE,136,0.0,-999.0,81,-99.99,,,0.00,,2013-04-10 04:53:00,